FW6592 Weather Reports


time (UTC)temp
C
wind
direction
speed
KPH
gust
KPH
rain 1hr
cm
rain 24hr
cm
rain mn
cm
humidity
%
barometer
mb
20260506032814 18 285 4.8 9.7 0.00 0.00 0.00 80 1016.5
20260506032311 18 238 3.2 8.0 0.00 0.00 0.00 79 1016.5
20260506031807 18 242 6.4 11.3 0.00 0.00 0.00 79 1016.5
20260506031305 18 27 6.4 12.9 0.00 0.00 0.00 78 1016.4
20260506030802 18 244 9.7 12.9 0.00 0.00 0.00 78 1016.6
20260506030300 18 271 11.3 14.5 0.00 0.00 0.00 78 1016.8
20260506025757 18 277 8.0 11.3 0.00 0.00 0.00 78 1016.6
20260506025253 18 168 3.2 8.0 0.00 0.00 0.00 77 1016.7
20260506024750 18 259 4.8 11.3 0.00 0.00 0.00 77 1016.8
20260506024247 18 268 6.4 12.9 0.00 0.00 0.00 76 1016.8
20260506023743 18 258 6.4 9.7 0.00 0.00 0.00 76 1016.7
20260506023240 18 265 4.8 8.0 0.00 0.00 0.00 75 1016.6
20260506022736 19 262 14.5 16.1 0.00 0.00 0.00 75 1016.5
20260506022235 19 190 9.7 12.9 0.00 0.00 0.00 74 1016.5
20260506021733 19 312 8.0 12.9 0.00 0.00 0.00 74 1016.2
20260506021229 19 270 4.8 9.7 0.00 0.00 0.00 74 1016.3
20260506020726 19 317 8.0 14.5 0.00 0.00 0.00 73 1016.5
20260506020224 19 237 6.4 20.9 0.00 0.00 0.00 73 1015.9
20260506015721 19 292 6.4 12.9 0.00 0.00 0.00 73 1016.0
20260506015219 19 268 6.4 9.7 0.00 0.00 0.00 73 1015.9
20260506014716 20 254 3.2 9.7 0.00 0.00 0.00 72 1015.9
20260506014211 20 253 8.0 12.9 0.00 0.00 0.00 72 1016.0
20260506013709 20 269 4.8 9.7 0.00 0.00 0.00 71 1015.8
20260506013206 20 285 4.8 11.3 0.00 0.00 0.00 70 1015.7
20260506012702 20 146 3.2 11.3 0.00 0.00 0.00 70 1015.7
20260506012159 20 169 4.8 11.3 0.00 0.00 0.00 70 1015.6
20260506011657 20 254 8.0 14.5 0.00 0.00 0.00 69 1015.7
20260506011153 20 282 8.0 12.9 0.00 0.00 0.00 68 1015.8
20260506010652 20 261 9.7 12.9 0.00 0.00 0.00 67 1015.5
20260506010148 21 276 12.9 16.1 0.00 0.00 0.00 67 1015.7
20260506005645 21 323 8.0 17.7 0.00 0.00 0.00 66 1015.4
20260506005142 21 262 11.3 20.9 0.00 0.00 0.00 66 1015.1
20260506004638 21 232 8.0 24.1 0.00 0.00 0.00 66 1015.2
20260506004136 21 303 11.3 14.5 0.00 0.00 0.00 66 1015.3
20260506003632 21 250 12.9 22.5 0.00 0.00 0.00 65 1015.1
20260506003128 21 282 8.0 14.5 0.00 0.00 0.00 64 1014.9
20260506002624 21 331 8.0 22.5 0.00 0.00 0.00 64 1015.0
20260506002120 21 195 4.8 12.9 0.00 0.00 0.00 64 1015.0
20260506001616 22 271 14.5 22.5 0.00 0.00 0.00 63 1014.9
20260506001113 22 266 4.8 11.3 0.00 0.00 0.00 64 1014.8
20260506000611 22 316 8.0 14.5 0.00 0.00 0.00 63 1014.8
20260506000108 22 268 9.7 16.1 0.00 0.00 0.00 62 1014.7
20260505235606 22 236 4.8 11.3 0.00 0.00 0.00 62 1014.8
20260505235103 22 242 6.4 11.3 0.00 0.00 0.00 62 1014.8
20260505234600 22 280 9.7 17.7 0.00 0.00 0.00 61 1014.8
20260505234056 23 244 8.0 12.9 0.00 0.00 0.00 60 1014.6
20260505233554 23 249 6.4 9.7 0.00 0.00 0.00 59 1014.7
20260505233046 23 321 8.0 12.9 0.00 0.00 0.00 59 1014.8
20260505232543 23 259 8.0 12.9 0.00 0.00 0.00 58 1014.6
20260505232041 23 296 6.4 16.1 0.00 0.00 0.00 57 1014.5
20260505231537 23 261 12.9 20.9 0.00 0.00 0.00 56 1014.7
20260505231036 24 271 11.3 12.9 0.00 0.00 0.00 55 1014.4
20260505230533 24 296 12.9 20.9 0.00 0.00 0.00 55 1014.3
20260505230030 24 306 11.3 16.1 0.00 0.00 0.00 54 1014.7
20260505225527 24 236 8.0 16.1 0.00 0.00 0.00 54 1014.6
20260505225023 25 276 3.2 12.9 0.00 0.00 0.00 54 1014.6
20260505224520 24 249 4.8 12.9 0.00 0.00 0.00 55 1014.7
20260505224017 25 321 6.4 14.5 0.00 0.00 0.00 53 1014.8
20260505223514 25 278 6.4 16.1 0.00 0.00 0.00 53 1014.6
20260505223010 25 220 4.8 11.3 0.00 0.00 0.00 52 1014.7
20260505222507 25 270 6.4 12.9 0.00 0.00 0.00 52 1014.7
20260505222002 25 218 11.3 14.5 0.00 0.00 0.00 52 1014.6
20260505221500 25 263 6.4 14.5 0.00 0.00 0.00 51 1014.6
20260505220957 25 343 8.0 14.5 0.00 0.00 0.00 50 1014.5
20260505220454 25 258 1.6 8.0 0.00 0.00 0.00 52 1014.8
20260505215951 25 302 8.0 11.3 0.00 0.00 0.00 50 1014.6
20260505215449 25 260 8.0 9.7 0.00 0.00 0.00 49 1014.7
20260505214947 25 207 4.8 14.5 0.00 0.00 0.00 49 1015.0
20260505214445 26 294 4.8 16.1 0.00 0.00 0.00 48 1014.9
20260505213941 25 279 8.0 16.1 0.00 0.00 0.00 47 1014.7
20260505213439 26 294 9.7 14.5 0.00 0.00 0.00 47 1014.8
20260505212935 26 324 6.4 11.3 0.00 0.00 0.00 47 1014.8
20260505212432 26 296 8.0 14.5 0.00 0.00 0.00 48 1014.9
20260505211928 26 300 6.4 16.1 0.00 0.00 0.00 48 1014.9
20260505211426 26 182 6.4 16.1 0.00 0.00 0.00 46 1014.9
20260505210922 26 298 9.7 16.1 0.00 0.00 0.00 46 1014.9
20260505210420 26 291 4.8 16.1 0.00 0.00 0.00 47 1014.9
20260505205916 26 276 11.3 16.1 0.00 0.00 0.00 47 1014.9
20260505205415 26 270 11.3 22.5 0.00 0.00 0.00 49 1014.8
20260505204911 26 244 11.3 16.1 0.00 0.00 0.00 48 1015.1
20260505204409 25 278 4.8 16.1 0.00 0.00 0.00 48 1014.9
20260505203906 26 339 4.8 8.0 0.00 0.00 0.00 47 1014.9
20260505203402 26 234 8.0 17.7 0.00 0.00 0.00 47 1015.0
20260505202859 26 335 11.3 16.1 0.00 0.00 0.00 47 1015.1
20260505202355 26 342 8.0 14.5 0.00 0.00 0.00 46 1015.0
20260505201852 26 319 8.0 16.1 0.00 0.00 0.00 44 1014.9
20260505201349 26 230 11.3 37.0 0.00 0.00 0.00 47 1015.1
20260505200847 26 269 11.3 17.7 0.00 0.00 0.00 45 1015.0
20260505200344 26 300 3.2 9.7 0.00 0.00 0.00 48 1015.1
20260505195839 26 256 11.3 16.1 0.00 0.00 0.00 46 1015.3
20260505195337 26 258 4.8 11.3 0.00 0.00 0.00 46 1015.1
20260505194834 26 219 8.0 11.3 0.00 0.00 0.00 46 1015.0
20260505194331 26 73 8.0 11.3 0.00 0.00 0.00 45 1015.6
20260505193826 26 30 4.8 24.1 0.00 0.00 0.00 45 1015.6
20260505193324 26 310 8.0 12.9 0.00 0.00 0.00 47 1015.9
20260505192822 26 301 9.7 16.1 0.00 0.00 0.00 46 1015.9
20260505192320 26 247 4.8 22.5 0.00 0.00 0.00 46 1015.9
20260505191817 25 275 8.0 11.3 0.00 0.00 0.00 48 1015.8
20260505191316 27 324 14.5 17.7 0.00 0.00 0.00 46 1016.0
20260505190812 26 337 8.0 14.5 0.00 0.00 0.00 46 1015.9
20260505190308 26 4 3.2 16.1 0.00 0.00 0.00 47 1016.2
20260505185804 26 258 14.5 16.1 0.00 0.00 0.00 47 1016.2
20260505185300 26 221 4.8 11.3 0.00 0.00 0.00 49 1016.1
20260505184756 25 258 9.7 14.5 0.00 0.00 0.00 48 1016.2
20260505184254 25 247 9.7 16.1 0.00 0.00 0.00 48 1016.2
20260505183751 25 227 9.7 16.1 0.00 0.00 0.00 48 1016.4
20260505183248 26 318 3.2 11.3 0.00 0.00 0.00 49 1016.5
20260505182744 26 294 11.3 12.9 0.00 0.00 0.00 46 1016.4
20260505182241 26 296 12.9 20.9 0.00 0.00 0.00 47 1016.5
20260505181737 25 272 4.8 11.3 0.00 0.00 0.00 49 1016.4
20260505181235 26 321 8.0 11.3 0.00 0.00 0.00 47 1016.5
20260505180731 25 280 8.0 11.3 0.00 0.00 0.00 47 1016.5
20260505180228 25 184 9.7 17.7 0.00 0.00 0.00 48 1016.4
20260505175724 25 281 11.3 17.7 0.00 0.00 0.00 48 1016.6
20260505175221 26 45 4.8 9.7 0.00 0.00 0.00 48 1016.6
20260505174717 25 275 4.8 11.3 0.00 0.00 0.00 49 1016.9
20260505174214 25 236 9.7 9.7 0.00 0.00 0.00 49 1016.6
20260505173710 25 53 8.0 12.9 0.00 0.00 0.00 48 1016.6
20260505173207 25 245 8.0 11.3 0.00 0.00 0.00 48 1016.7
20260505172704 25 291 9.7 17.7 0.00 0.00 0.00 49 1016.8
20260505172201 25 277 12.9 17.7 0.00 0.00 0.00 48 1016.8
20260505171701 25 239 16.1 20.9 0.00 0.00 0.00 49 1016.8
20260505171158 25 301 4.8 14.5 0.00 0.00 0.00 52 1016.7
20260505170655 25 255 11.3 22.5 0.00 0.00 0.00 52 1016.9
20260505170152 25 357 8.0 12.9 0.00 0.00 0.00 51 1017.0
20260505165652 25 11 6.4 12.9 0.00 0.00 0.00 51 1017.1
20260505165148 24 270 11.3 14.5 0.00 0.00 0.00 52 1017.0
20260505164644 25 293 11.3 16.1 0.00 0.00 0.00 53 1017.2
20260505164142 25 335 8.0 16.1 0.00 0.00 0.00 53 1017.1
20260505163640 25 297 11.3 22.5 0.00 0.00 0.00 54 1017.3
20260505163137 25 0 12.9 16.1 0.00 0.00 0.00 55 1017.6
20260505162634 24 263 12.9 14.5 0.00 0.00 0.00 54 1017.4
20260505162132 24 317 8.0 24.1 0.00 0.00 0.00 53 1017.5
20260505161629 23 327 6.4 11.3 0.00 0.00 0.00 55 1017.4
20260505161126 23 333 11.3 16.1 0.00 0.00 0.00 54 1017.7
20260505160624 23 132 6.4 11.3 0.00 0.00 0.00 54 1017.5
20260505160121 23 284 11.3 16.1 0.00 0.00 0.00 57 1017.7
20260505153101 23 258 11.3 14.5 0.00 0.00 0.00 58 1017.9
20260505152557 23 346 11.3 12.9 0.00 0.00 0.00 59 1017.8
20260505152053 23 291 9.7 12.9 0.00 0.00 0.00 59 1017.9
20260505151548 22 293 3.2 9.7 0.00 0.00 0.00 61 1018.0
20260505151046 22 318 11.3 14.5 0.00 0.00 0.00 60 1017.9
20260505150542 22 284 4.8 11.3 0.00 0.00 0.00 62 1018.0
20260505140507 20 31 8.0 16.1 0.00 0.00 0.00 68 1018.1
20260505124920 17 97 4.8 8.0 0.00 0.00 0.00 78 1017.9
20260505124417 17 349 6.4 12.9 0.00 0.00 0.00 79 1017.8
20260505123914 16 93 1.6 9.7 0.00 0.00 0.00 79 1018.0
20260505123410 16 154 3.2 8.0 0.00 0.00 0.00 79 1017.7
20260505122906 16 220 6.4 8.0 0.00 0.00 0.00 80 1017.8
20260505122404 15 182 3.2 11.3 0.00 0.00 0.00 82 1017.9
20260505121900 15 231 4.8 9.7 0.00 0.00 0.00 82 1017.7
20260505121357 15 277 4.8 9.7 0.00 0.00 0.00 83 1017.8
20260505120853 15 279 6.4 8.0 0.00 0.00 0.00 83 1017.9
20260505120349 15 190 3.2 4.8 0.00 0.00 0.00 83 1017.9
20260505115848 14 139 0.0 4.8 0.00 0.00 0.00 84 1017.9
20260505115345 14 78 1.6 4.8 0.00 0.00 0.00 84 1017.9
20260505114843 13 143 0.0 3.2 0.00 0.00 0.00 86 1017.8
20260505114340 13 296 0.0 1.6 0.00 0.00 0.00 88 1017.6
20260505113836 12 244 1.6 4.8 0.00 0.00 0.00 89 1017.5
20260505113333 12 146 0.0 0.0 0.00 0.00 0.00 92 1017.7
20260505112828 11 155 1.6 1.6 0.00 0.00 0.00 94 1017.7
20260505112326 11 146 0.0 1.6 0.00 0.00 0.00 95 1017.5
20260505111821 10 136 0.0 3.2 0.00 0.00 0.00 95 1017.4
20260505111317 10 154 0.0 1.6 0.00 0.00 0.00 95 1017.3
20260505110813 10 152 1.6 1.6 0.00 0.00 0.00 95 1017.3
20260505110311 9 127 0.0 0.0 0.00 0.00 0.00 95 1017.4
20260505101745 8 133 0.0 0.0 0.00 0.00 0.00 95 1016.6
20260505101241 8 131 0.0 0.0 0.00 0.00 0.00 95 1016.7
20260505100738 8 135 0.0 0.0 0.00 0.00 0.00 95 1016.8
20260505100234 8 135 0.0 0.0 0.00 0.00 0.00 95 1016.4
20260505095729 9 135 0.0 0.0 0.00 0.00 0.00 95 1016.4
20260505095228 8 133 0.0 0.0 0.00 0.00 0.00 95 1016.6
20260505094723 9 133 0.0 0.0 0.00 0.00 0.00 95 1016.5
20260505094220 9 133 0.0 0.0 0.00 0.00 0.00 95 1016.5
20260505093716 9 133 0.0 0.0 0.00 0.00 0.00 95 1016.3
20260505093214 9 131 0.0 0.0 0.00 0.00 0.00 95 1016.6
20260505092710 10 131 0.0 0.0 0.00 0.00 0.00 95 1016.6
20260505092209 10 135 0.0 0.0 0.00 0.00 0.00 95 1016.2
20260505091706 10 135 0.0 0.0 0.00 0.00 0.00 95 1016.4
20260505091204 10 135 0.0 0.0 0.00 0.00 0.00 95 1016.4
20260505090701 10 135 0.0 0.0 0.00 0.00 0.00 95 1016.3
20260505090159 10 135 0.0 0.0 0.00 0.00 0.00 95 1016.0
20260505085656 10 135 0.0 0.0 0.00 0.00 0.00 95 1016.2
20260505085154 10 131 0.0 0.0 0.00 0.00 0.00 95 1016.3
20260505084651 10 128 0.0 0.0 0.00 0.00 0.00 95 1016.0
20260505084150 10 131 0.0 0.0 0.00 0.00 0.00 94 1016.2
20260505083647 10 133 0.0 0.0 0.00 0.00 0.00 94 1016.2
20260505083144 10 131 0.0 0.0 0.00 0.00 0.00 93 1016.2
20260505082639 10 131 0.0 0.0 0.00 0.00 0.00 93 1016.2
20260505082137 10 130 0.0 0.0 0.00 0.00 0.00 93 1016.0
20260505081632 11 135 0.0 0.0 0.00 0.00 0.00 92 1016.0
20260505081131 11 136 0.0 0.0 0.00 0.00 0.00 92 1015.9
20260505080627 11 131 0.0 0.0 0.00 0.00 0.00 92 1016.2
20260505080123 11 131 0.0 0.0 0.00 0.00 0.00 92 1016.1
20260505075620 11 130 0.0 0.0 0.00 0.00 0.00 91 1016.1
20260505075116 11 142 0.0 0.0 0.00 0.00 0.00 91 1016.0
20260505074613 11 136 0.0 0.0 0.00 0.00 0.00 90 1016.1
20260505074110 11 137 0.0 0.0 0.00 0.00 0.00 90 1015.8
20260505073608 11 137 0.0 0.0 0.00 0.00 0.00 89 1016.0
20260505073106 11 131 0.0 0.0 0.00 0.00 0.00 87 1015.9
20260505072601 11 131 0.0 0.0 0.00 0.00 0.00 86 1016.0
20260505072058 12 133 0.0 0.0 0.00 0.00 0.00 86 1015.9
20260505071553 12 134 0.0 0.0 0.00 0.00 0.00 85 1015.9
20260505071052 12 127 0.0 0.0 0.00 0.00 0.00 83 1016.1
20260505070548 12 131 0.0 0.0 0.00 0.00 0.00 82 1016.0
20260505070044 13 132 0.0 0.0 0.00 0.00 0.00 80 1016.0
20260505065540 13 137 0.0 1.6 0.00 0.00 0.00 80 1016.0
20260505065037 13 137 0.0 1.6 0.00 0.00 0.00 79 1015.8
20260505064534 13 264 3.2 3.2 0.00 0.00 0.00 79 1016.0
20260505064033 13 158 1.6 3.2 0.00 0.00 0.00 78 1015.7
20260505063530 14 143 1.6 1.6 0.00 0.00 0.00 77 1015.7
20260505063025 14 194 1.6 3.2 0.00 0.00 0.00 77 1015.9
20260505062522 14 233 4.8 4.8 0.00 0.00 0.00 76 1015.7
20260505062020 14 153 1.6 4.8 0.00 0.00 0.00 76 1015.9
20260505061517 15 211 4.8 4.8 0.00 0.00 0.00 75 1016.2
20260505061015 15 138 3.2 3.2 0.00 0.00 0.00 75 1016.0
20260505060512 15 236 3.2 4.8 0.00 0.00 0.00 75 1016.3
20260505060009 15 223 4.8 4.8 0.00 0.00 0.00 74 1016.1
20260505055504 15 133 3.2 4.8 0.00 0.00 0.00 74 1016.3
20260505055001 15 180 1.6 3.2 0.00 0.00 0.00 74 1016.2
20260505054458 15 220 3.2 3.2 0.00 0.00 0.00 75 1016.5
20260505053956 15 195 3.2 3.2 0.00 0.00 0.00 74 1016.2
20260505053453 15 41 1.6 3.2 0.00 0.00 0.00 73 1016.1
20260505052950 15 153 0.0 1.6 0.00 0.00 0.00 73 1016.2
20260505052447 15 150 1.6 4.8 0.00 0.00 0.00 73 1016.3
20260505051944 15 152 1.6 3.2 0.00 0.00 0.00 73 1016.4
20260505051441 15 181 1.6 3.2 0.00 0.00 0.00 72 1016.4
20260505050939 15 149 1.6 4.8 0.00 0.00 0.00 72 1016.4
20260505050437 16 144 3.2 4.8 0.00 0.00 0.00 71 1016.6
20260505041404 16 325 4.8 8.0 0.00 0.00 0.00 68 1016.4
20260505040901 17 155 3.2 11.3 0.00 0.00 0.00 68 1016.3
20260505040359 17 273 4.8 9.7 0.00 0.00 0.00 68 1016.5
20260505035855 17 118 3.2 8.0 0.00 0.00 0.00 67 1016.7
20260505035351 17 65 4.8 11.3 0.00 0.00 0.00 67 1016.5
20260505034849 17 255 3.2 9.7 0.00 0.00 0.00 67 1016.4
20260505034345 17 307 4.8 8.0 0.00 0.00 0.00 66 1016.5
20260505033843 17 267 8.0 12.9 0.00 0.00 0.00 66 1016.5
20260505033339 17 259 4.8 9.7 0.00 0.00 0.00 65 1016.3